Showing default

3CAT-5/A (TYVAK-0161), 46292

Orbit data source: Space-Track

3CAT-5/A (TYVAK-0161), 46292 is a payload satellite owned by UPC (ES) in SSO that was launched on Thu, 03 Sep 2020 UTC via a VEGA launch vehicle from the French Guiana (FRGUI). Payload-class satellites include a variety of spacecraft equipped with specific instruments for various scientific and technological missions. These include communications satellites like Starlink; space stations such as the ISS; scientific satellites like the Hubble; Earth observation satellites from companies like Planet Labs, Umbra, and HawkEye 360; GPS; miniature CubeSats for education and research; and military/defense satellites.

Loading next visibility...
Identifier
46292, 2020-061W
Orbit
SSO
Country
Flag of ESES / SPN
Related business
Manufacturer
UPC
Mission
Non-operational Amateur Technology
Bus & Motor
CUBESAT 6U, Unknown motor
Mass
~10 kg wet, ~10 kg dry
Launch date (UTC)
2020-09-03 (5 years ago)
Launch vehicle
VEGA
Launch site
French Guiana (FRGUI)
Object type
Payload
Rocket body
Debris
Shape & HBR
Box, Unknown HBR
Radar Cross Section
0.080 m², Medium (>0.1 m² and < 1m²)

Expand to show TLE details & history
Last TLE update: 1 day ago

TLE from 1 day ago
0 3CAT-5/A (TYVAK-0161)
1 46292U 20061W   25257.12514067  .00009481  00000-0  27221-3 0  9998
2 46292  97.2843 316.6022 0003304  69.7670 290.3929 15.36051788278503
Epoch: 2025-09-14T03:00Z
TLE epoch observation values (Epoch: 2025-09-14T03:00:12.153Z)
Latitude
-0.00007°
Longitude
-81.79707°
Altitude
460.127 km
Speed
7.637 km/s
True Right ascension
21h 06m 24s
True Declination
0° 00' 00"
Sunlit
Object was in full shadow at epoch
Visualization orbit readout
Latitude
Unknown
Longitude
Unknown
Altitude
Unknown
Speed
Unknown
Apparent Right ascension
Unknown
Apparent Declination
Unknown
Sunlit
N/A
Visualization observer readout
Local Sidereal Time
21:27:03
Azimuth
Unknown
Elevation
Unknown
Doppler factor
Unknown
Orbital elements
Apogee altitude
456.995 km
Perigee altitude
452.48 km
Semi-major axis
6,832.874 km
Eccentricity
0.00033
Inclination
97.2843°
RAAN
316.6022°
Arg. of periapsis
69.767°
True anomaly
290.35741°
Mean anomaly
290.3929°
Eccentric anomaly
290.37515°
Mean motion
3.84271 °/min
Orbital period
93.68 mins
BSTAR
0.00027221
Loading maneuver chart data...
Computing Atmospheric mass density...

Documentation

Showing up to 5 results
|